STARLINK-1282, 45409

Orbit data source: Space-Track

STARLINK-1282, 45409 is a payload satellite owned by SpaceX/Seattle (US) in LEO that was launched on Wed, 18 Mar 2020 UTC via an FALCON 9 launch vehicle from the Air Force Eastern Test Range (AFETR). Payloads include a variety of satellites, spacecraft, and rockets equipped with specific instruments for various scientific and technological missions. These include communications satellites like Starlink; space stations such as the ISS; scientific satellites like the Hubble; Earth observation satellites from companies like Planet Labs, Umbra, and HawkEye 360; GPS; miniature CubeSats for education and research; and military/defense satellites.

Loading next visibility...
STARLINK-1282 details
Identifier
45409, 2020-019BB
Orbit
LEO
Last TLE update8 hours ago
Origin
Flag of USSpaceX/Seattle (US)
ManufacturerSpaceX/Seattle
MissionOperational Commercial Communications
Bus & MotorSTARLINK, Unknown motor
Mass260 kg wet, ~248 kg dry
Launch date (UTC)
2020-03-18 (5 years ago)
Launch vehicle
FALCON 9
Launch site
Air Force Eastern Test Range (AFETR)
Object type
Payload
Rocket body
Debris
Shape & HBRBox + 1 Pan, 8.86 m
Radar Cross Section13.562 m², Large (>1 m²)

Expand to show TLE details & history

TLE from 8 hours ago
0 STARLINK-1282
1 45409U 20019BB  24361.24497165  .00029595  00000-0  19986-2 0  9993
2 45409  53.0539 304.8720 0001281  90.1582 269.9553 15.06377720263783
Epoch: 2024-12-26T05:52Z
Definitive object data (Epoch: 2024-12-26T05:52:45.55Z)
Latitude-0.00009°
Longitude121.455°
Altitude548.16 km
Speed7.589 km/s
True Right ascension20h 19m 29s
True Declination0° 00' 00"
Sunlit
Object was in daylight at TLE epoch
Visualization TLE readout
Latitude-23.50859°
Longitude101.00289°
Altitude554.401 km
Speed7.584 km/s
Apparent Right ascension21h 30m 32s
Apparent Declination-40° 44' 59"
Sunlit
Object is in daylight
Visualization observer readout
Local Sidereal Time13:04:16
Azimuth109.131° ESE
Elevation-49.907°
Doppler factor1
Orbital elements
Apogee altitude548.438 km
Perigee altitude546.663 km
Semi-major axis6,925.688 km
Eccentricity0.0001281
Inclination53.0539°
RAAN304.872°
Arg. of periapsis90.1582°
True anomaly269.94062°
Mean anomaly269.9553°
Eccentric anomaly269.94796°
Mean motion3.76573 °/min
BSTAR0.0019986
Orbital period95.6 mins
Loading maneuver chart data...
Loading historical data...
Loading historical data...
Loading historical data...
Loading historical data...
Loading historical data...
Loading historical data...
Loading historical data...

STARLINK-1282 Visibility forecast

Observer location: undefined°, undefined

Span
Click to sort rows by Start time (UTC) header in descending order
Start Az.
Max El. time (UTC)
Max El. Az.
Max El.
End time (UTC)
End Az.
4 mins2024-12-26 21:57:33.204Z160.217° S2024-12-26 21:59:33.204Z125.737° SE17.181°2024-12-26 22:01:33.204Z92.187° ESE
6 mins2024-12-26 23:36:33.204Z249.924° W2024-12-26 23:38:33.204Z316.714° NNW41.523°2024-12-26 23:42:33.204Z44.641° NE
4 mins2024-12-27 01:17:33.204Z319.724° NNW2024-12-27 01:18:33.204Z337.708° N16.953°2024-12-27 01:21:33.204Z25.59° NE
5 mins2024-12-27 04:38:33.204Z346.776° N2024-12-27 04:40:33.204Z30.474° NE23.241°2024-12-27 04:43:33.204Z80.898° E
6 mins2024-12-27 06:17:33.204Z299.195° NW2024-12-27 06:20:33.204Z190.608° SSW40.301°2024-12-27 06:23:33.204Z144.477° SSE
|